ECMWFFLT1_925_spd_000.txt.gz
Wind_Speed
7 8 8 7 7 6 6 6 6 7 7 7 8 8 9 9 9 9 8 8 8 7 7 7 7 6 7 7 7 6 5 5 6 4 3 3 1 1 2 4 3 3 3 3 1 2 2 2 3 4 6 7 9 9 7 5 5 5 6 7 8 9 9
7 7 8 7 7 7 7 6 6 6 7 7 8 9 9 10 10 10 10 9 9 8 8 8 8 8 7 7 7 8 8 7 7 5 4 4 4 3 2 2 2 1 2 3 3 0 2 2 2 2 3 6 7 7 6 6 8 8 9 9 10 10 10
9 7 7 8 8 7 7 7 6 6 6 7 8 9 10 10 10 10 10 10 10 9 9 9 9 8 8 8 8 8 8 8 8 8 7 5 5 4 4 4 4 4 2 1 2 3 2 3 4 3 4 5 5 6 8 10 11 11 11 12 12 11 11
11 9 8 8 8 8 7 7 7 6 7 7 8 9 9 9 9 9 10 10 10 10 9 9 8 8 8 8 8 8 8 8 7 8 7 6 5 4 5 4 5 5 4 3 3 4 3 3 4 5 6 7 8 9 9 9 9 11 14 15 14 13 12
12 11 9 9 9 9 8 8 7 7 7 7 7 8 8 8 8 8 9 9 9 9 9 8 8 8 8 7 7 7 7 7 7 6 6 6 5 4 4 4 4 4 4 4 3 3 3 3 4 5 6 8 9 10 10 10 11 13 15 15 14 13 12
13 12 10 9 9 9 8 8 8 7 7 8 7 8 8 7 7 7 8 8 9 9 9 8 8 8 8 8 8 8 7 7 7 6 6 6 5 4 4 3 3 3 3 4 4 3 3 4 5 5 6 7 8 10 12 12 12 12 12 12 12 11 10
14 13 11 10 9 9 8 9 8 7 7 8 8 8 9 8 6 7 7 8 8 9 9 8 8 7 7 7 7 7 7 7 7 7 7 6 6 5 4 3 3 3 4 4 4 4 4 4 5 6 7 7 8 10 12 11 11 10 9 9 8 9 9
15 14 13 11 10 9 9 9 8 7 6 7 7 8 9 9 7 7 8 8 8 8 8 8 7 7 6 6 6 6 6 6 6 5 5 5 5 4 4 3 3 3 4 4 5 5 5 5 5 6 7 7 6 7 8 9 10 9 8 8 8 8 8
14 14 14 12 11 11 10 10 10 9 7 7 8 9 10 10 10 9 8 8 8 8 7 7 6 6 6 5 5 5 5 5 5 4 4 4 4 3 3 3 3 3 3 4 5 5 5 5 6 6 6 6 6 5 5 6 7 7 7 7 7 6 5
16 15 14 14 14 13 12 11 11 11 10 9 10 11 12 11 11 11 10 9 9 8 8 7 6 6 6 6 5 5 5 4 4 4 3 3 3 2 3 3 3 3 3 4 4 5 5 5 5 6 6 7 7 6 5 5 5 6 8 8 8 7 5
21 19 16 15 16 16 15 13 12 13 13 12 12 13 13 13 13 12 11 11 10 9 8 8 7 7 6 6 6 5 5 4 4 3 3 3 2 2 2 2 3 2 3 4 4 4 5 5 5 6 6 7 7 7 7 6 6 6 8 8 9 8 7
22 19 16 15 16 17 18 16 14 14 15 15 15 15 15 15 14 14 13 12 11 10 9 8 7 7 7 6 6 6 5 5 4 3 3 2 2 2 2 2 2 2 3 4 4 4 4 4 5 6 6 7 8 8 9 9 7 7 7 8 9 10 10
20 19 17 15 16 17 19 18 17 16 15 16 17 17 16 16 16 16 15 14 13 12 10 9 8 7 6 6 6 6 6 6 5 4 3 2 2 1 1 2 2 2 3 4 4 4 5 5 5 6 6 7 8 8 10 10 9 9 10 11 11 11 11
18 18 18 17 18 18 18 18 19 18 16 17 18 18 18 17 18 17 16 16 15 14 12 11 9 8 7 7 7 6 6 6 6 5 4 3 3 1 0 1 2 2 3 4 4 5 5 5 6 6 6 6 8 8 9 11 11 11 12 11 11 11 11
18 18 18 19 19 19 18 17 18 18 18 18 19 20 19 19 19 18 18 17 16 15 14 12 11 10 9 9 8 7 7 6 6 5 4 3 3 2 1 1 1 1 2 4 5 6 6 5 7 7 6 7 8 8 9 11 12 12 12 12 11 12 12
17 18 19 20 21 20 19 18 18 19 19 19 19 20 20 20 20 19 19 18 18 17 15 14 13 11 11 11 9 9 8 7 6 5 4 3 2 2 1 2 1 1 2 3 4 6 6 6 7 7 8 8 9 10 10 11 12 13 13 13 13 13 12
14 16 17 18 19 18 16 16 17 18 18 17 19 21 21 22 22 21 20 19 19 18 17 16 14 13 13 12 11 10 9 8 7 6 5 4 3 2 2 2 2 2 3 3 4 5 5 6 7 8 9 9 9 10 10 11 12 13 14 14 14 14 14
13 16 16 16 15 15 15 16 16 17 18 18 20 22 23 23 24 23 22 22 21 19 19 18 16 15 14 13 12 11 10 9 8 7 5 4 3 3 3 3 3 3 3 4 4 5 5 6 8 9 10 10 11 11 11 12 13 14 15 16 16 15 15
12 15 16 16 16 17 17 18 18 20 21 21 21 22 24 25 25 25 24 23 22 21 20 19 18 17 15 14 13 11 10 9 8 7 5 4 4 4 4 4 4 4 4 5 5 6 7 8 9 9 10 11 12 12 12 13 14 15 16 17 17 16 15
12 14 15 15 17 17 18 18 20 20 20 20 21 23 24 24 25 25 24 23 23 22 21 20 18 17 16 15 13 12 11 9 8 7 6 5 5 4 4 4 4 4 5 5 5 6 7 8 9 10 11 11 11 12 13 14 15 16 17 18 17 16 16
9 11 13 14 16 17 18 19 20 20 19 20 22 22 23 23 23 24 25 25 24 22 22 21 19 18 17 15 14 12 11 9 8 7 6 6 5 5 5 5 4 4 5 5 7 7 8 9 10 11 11 11 12 13 14 14 15 16 17 17 17 16 16
7 8 10 12 14 16 17 18 19 19 19 19 20 21 22 23 23 23 25 25 24 23 22 20 20 19 17 15 13 12 10 9 8 7 6 5 5 5 4 4 5 5 5 6 7 8 8 10 11 12 12 12 13 14 15 15 15 16 16 17 17 17 16
7 8 9 10 11 13 15 17 18 19 19 19 19 19 19 21 22 21 21 23 24 23 21 20 21 20 18 15 12 10 9 8 7 6 6 5 5 4 4 5 6 8 8 8 7 7 9 9 10 12 13 14 14 15 15 16 16 17 17 17 17 17 16
8 8 9 10 10 11 13 14 16 17 17 18 16 16 21 24 25 24 22 23 23 21 20 22 23 21 17 14 11 9 8 7 7 6 6 5 4 4 5 6 6 8 10 8 8 10 12 12 11 12 14 15 16 17 18 18 18 17 18 18 18 18 17
9 9 9 10 10 10 11 12 14 14 14 15 16 18 22 25 26 26 24 21 18 16 17 21 20 16 13 11 9 8 7 7 7 6 6 5 5 5 6 7 8 8 9 10 11 12 13 12 12 14 15 16 18 20 21 22 22 20 20 19 20 20 19
10 10 10 10 9 9 9 10 11 11 12 15 17 18 21 23 24 23 22 21 19 17 16 17 15 12 10 8 7 7 7 7 6 6 6 5 6 7 8 8 9 9 9 11 12 12 11 12 13 15 17 18 19 19 20 22 24 25 25 23 23 22 21
10 11 11 11 10 9 9 9 10 11 12 14 17 18 19 21 20 20 21 22 21 18 17 15 14 11 9 7 7 7 7 6 5 5 6 6 7 8 9 9 10 10 11 11 12 12 12 13 15 16 16 17 18 18 19 20 21 24 27 27 27 26 24
11 11 12 11 10 9 9 9 10 11 12 13 16 17 17 19 19 19 20 20 18 15 14 14 13 11 9 8 7 7 6 6 5 6 7 8 9 9 10 10 11 12 12 12 12 13 15 16 16 17 17 18 18 19 19 20 20 22 24 26 27 27 25
11 11 12 11 11 10 9 10 10 11 12 13 15 16 17 18 19 18 17 16 15 14 14 14 12 10 9 9 7 5 5 5 6 7 8 8 10 10 11 11 12 12 13 13 14 16 17 18 18 18 19 19 19 19 19 19 21 23 25 27 28 28 28
12 12 11 11 11 11 10 11 12 13 14 14 16 16 16 17 17 16 16 15 14 12 13 13 11 9 9 8 6 4 4 6 7 8 8 9 10 11 12 13 13 14 15 16 16 17 18 19 18 19 20 20 20 21 21 20 21 23 25 27 28 30 33
13 12 12 12 11 11 11 12 13 14 16 16 16 17 17 17 17 17 18 18 14 11 11 11 9 8 8 7 4 4 5 7 8 9 9 10 11 12 13 14 16 17 18 18 18 18 19 19 18 18 20 22 23 24 23 22 22 24 25 26 27 28 30
13 12 12 12 12 12 12 13 14 16 17 17 17 17 16 17 18 18 18 18 16 12 10 9 7 7 6 5 4 4 6 8 8 9 11 11 12 13 13 15 17 19 19 18 17 17 18 17 17 18 22 25 26 26 25 24 25 25 25 26 26 26 28
13 13 13 13 13 13 13 14 15 17 18 17 17 17 16 19 21 18 16 16 14 11 10 8 6 5 4 4 4 5 7 8 10 11 12 12 13 14 15 15 17 18 17 15 15 16 17 17 18 20 23 26 26 26 25 25 25 25 26 27 27 27 27
14 13 13 14 14 14 14 15 16 17 16 15 15 16 18 22 22 18 16 15 12 10 10 8 5 4 3 3 4 5 6 8 10 11 12 14 15 15 16 17 16 18 18 16 17 18 20 21 23 24 26 27 28 28 28 28 27 27 27 28 28 28 27
14 13 14 14 15 16 15 15 16 17 15 15 17 19 21 23 22 19 16 13 10 9 10 7 4 2 2 3 5 6 6 7 9 10 12 14 15 16 18 18 18 20 21 21 22 24 25 26 28 29 29 30 31 31 31 30 29 28 27 27 27 26 26
14 13 14 15 16 17 15 12 12 13 13 15 19 22 23 22 20 16 14 10 8 8 8 6 4 2 1 3 4 5 6 7 9 9 11 14 16 17 18 19 21 24 26 26 27 28 27 28 28 28 28 29 30 30 30 30 29 28 27 27 27 26 26
15 15 16 17 16 14 12 10 10 12 15 19 22 23 22 20 17 13 11 10 9 9 8 5 2 1 2 3 4 5 6 9 11 13 13 14 16 16 18 20 24 27 28 29 28 27 26 26 26 25 25 25 26 27 28 27 27 26 26 26 27 26 26

ECMWFFLT1_925_spd_003.txt.gz
Wind_Speed
9 10 10 10 9 9 9 9 9 8 8 8 8 8 8 8 8 7 7 6 6 6 6 6 5 5 6 6 5 4 3 4 5 3 3 2 1 2 3 3 4 5 5 6 8 6 3 2 3 4 5 6 7 8 9 10 12 14 14 14 16 17 14
11 11 10 10 10 10 9 9 9 9 8 8 8 9 8 8 8 8 8 7 7 7 7 7 7 7 7 7 7 7 6 6 6 6 5 5 4 3 3 2 2 3 4 5 7 5 3 4 3 2 4 6 7 8 10 10 10 13 16 16 16 16 16
12 12 11 11 10 10 9 9 9 9 9 9 9 9 8 8 8 8 8 8 8 8 8 8 8 8 8 8 8 7 8 7 7 7 7 7 6 6 5 3 1 1 3 3 3 3 2 3 3 3 3 4 5 9 12 12 12 12 13 14 15 16 16
12 12 12 12 10 10 10 9 9 9 9 9 9 8 8 8 8 7 7 7 8 8 8 8 8 8 8 7 8 8 8 8 8 7 8 8 7 7 7 6 5 4 3 2 3 3 3 3 4 4 4 5 7 9 12 11 10 10 11 13 15 16 16
13 12 13 12 11 11 10 9 9 9 9 9 9 8 8 7 7 7 7 7 7 7 7 8 7 8 8 8 8 8 8 8 8 8 8 9 8 8 8 8 7 6 6 6 5 5 5 5 5 4 5 6 7 8 10 10 11 12 14 15 15 15 16
13 13 13 13 12 11 11 10 9 9 9 9 9 9 8 8 7 7 6 6 6 7 7 7 7 7 7 8 8 8 9 9 9 9 9 9 9 8 8 8 7 6 6 6 6 5 5 5 6 5 6 6 6 8 10 11 12 13 13 16 17 16 15
14 14 13 13 13 12 12 11 10 9 9 9 9 10 10 9 8 7 7 7 7 7 7 7 7 7 7 7 8 8 8 8 8 8 8 8 8 8 7 6 6 6 5 5 5 5 5 5 5 6 6 7 7 9 9 9 10 10 10 11 13 14 13
14 14 13 13 13 13 13 13 11 10 10 10 10 11 11 10 9 9 9 8 8 7 7 7 7 6 6 7 7 7 7 6 6 6 6 6 6 7 7 6 5 5 5 5 5 5 5 6 6 6 6 6 6 6 6 7 8 9 10 9 8 10 9
14 14 14 12 13 13 13 13 13 11 10 11 11 12 12 11 10 10 9 9 9 8 8 7 6 6 6 6 6 6 6 5 5 5 5 5 5 5 6 5 4 4 5 5 5 5 6 6 6 6 6 6 6 5 5 5 6 7 9 10 10 9 6
14 14 14 13 13 13 13 13 13 13 12 12 13 14 13 12 11 11 10 10 10 9 9 8 7 7 6 6 6 5 5 5 5 5 4 4 4 3 3 4 3 3 4 5 5 5 6 6 7 7 7 7 6 5 5 5 5 6 8 9 12 12 10
15 14 14 13 13 13 13 13 13 13 13 13 14 15 14 14 13 12 11 11 10 10 9 9 8 8 7 6 6 5 5 5 5 5 4 4 3 3 2 2 1 1 2 3 4 4 5 5 6 7 7 7 7 7 6 6 6 8 10 9 9 11 13
16 15 14 13 13 13 14 13 13 13 14 14 14 15 15 15 15 14 13 12 11 11 10 10 9 9 8 7 7 6 6 5 5 5 5 4 4 3 3 2 1 0 1 2 2 2 3 4 5 6 7 8 8 8 8 8 7 8 11 10 10 11 14
15 15 13 12 12 13 14 13 13 13 14 14 15 16 17 16 17 16 15 14 13 12 12 11 10 9 9 8 8 7 6 6 6 6 5 4 4 4 3 3 2 2 1 2 3 3 3 4 4 5 6 6 7 7 8 9 8 9 11 12 13 13 13
12 11 12 12 12 12 11 11 12 13 13 14 15 17 17 17 18 17 16 16 15 14 14 13 12 11 10 9 8 8 7 7 7 7 6 5 5 4 3 3 3 3 3 3 3 4 4 4 5 6 6 6 6 6 7 9 10 11 12 12 13 14 13
9 8 12 15 13 10 9 9 11 13 14 15 16 17 18 18 19 19 18 17 17 16 15 15 14 13 11 11 10 9 9 9 8 7 7 6 6 5 4 4 3 3 3 4 4 5 5 5 5 6 6 6 7 7 7 9 10 11 12 13 13 14 14
9 9 13 15 12 11 14 14 13 13 14 15 16 18 19 19 19 20 19 19 18 17 17 16 16 15 14 14 13 11 11 10 9 9 8 8 7 6 5 5 4 4 4 4 5 6 6 6 6 6 6 7 8 9 9 9 10 11 13 14 13 14 13
9 11 13 13 11 12 16 19 19 17 16 17 17 18 19 20 20 20 20 20 19 19 19 18 18 17 16 16 14 13 12 12 11 10 9 8 8 7 6 5 5 4 4 4 5 6 6 6 6 7 8 8 9 9 9 9 10 11 13 14 14 14 14
7 9 10 10 11 11 13 16 18 18 18 20 20 19 19 20 21 21 21 21 22 22 22 21 20 18 17 16 15 14 13 12 12 11 10 9 8 7 6 6 5 5 4 5 5 5 6 6 7 8 9 9 10 10 10 10 11 12 14 15 16 16 15
6 8 10 10 10 11 12 13 14 15 15 17 19 20 21 21 21 21 23 23 23 23 22 21 20 19 18 17 16 15 14 13 12 11 10 9 8 7 7 6 5 5 5 5 5 6 6 7 8 9 10 10 11 11 11 12 12 13 15 16 16 17 16
4 5 5 5 6 8 11 13 13 14 14 15 17 19 21 21 22 23 24 23 23 23 22 21 20 19 18 18 17 16 15 13 12 11 10 9 8 8 7 6 6 5 5 5 5 5 6 6 7 8 10 10 11 12 12 13 13 14 15 16 16 16 16
5 5 4 3 3 4 7 11 12 14 15 15 17 19 19 20 23 25 25 24 23 22 21 21 20 19 18 17 17 16 15 14 12 11 10 9 9 8 8 7 7 6 6 6 6 6 6 7 8 9 9 10 11 12 13 14 14 14 15 16 16 16 16
4 5 5 4 4 4 6 8 11 14 15 16 18 19 19 18 20 23 24 24 23 22 22 22 22 21 20 18 16 15 13 13 12 11 10 9 9 8 8 8 8 8 9 10 9 10 11 10 9 10 10 10 11 12 13 14 14 15 15 16 16 16 16
3 4 5 5 5 5 6 7 9 11 13 15 17 19 19 18 19 21 22 24 24 23 22 22 22 24 22 19 16 14 13 11 11 10 9 9 9 9 8 8 9 11 13 12 11 11 11 10 10 10 11 11 11 13 14 15 15 16 16 16 16 16 16
5 5 6 6 6 7 7 9 9 10 11 12 14 16 17 17 20 23 23 25 25 23 20 20 22 25 24 20 16 14 12 11 10 10 9 9 9 9 9 8 8 10 12 11 10 9 9 9 11 11 11 11 12 14 15 16 17 17 17 17 17 17 17
5 6 6 7 7 8 9 10 10 11 11 9 10 12 13 14 17 19 20 21 20 18 17 19 23 25 25 22 18 14 11 11 10 10 10 10 9 8 9 8 8 8 9 9 9 9 10 12 13 12 11 12 14 16 17 17 18 18 18 18 19 19 18
5 6 6 7 8 9 10 10 11 10 10 9 9 9 10 12 11 13 15 15 15 14 14 19 24 25 25 23 19 13 10 10 10 10 10 10 9 8 8 8 8 8 8 9 10 10 11 12 11 10 11 13 16 18 19 19 19 19 20 20 21 21 20
5 6 7 8 9 10 10 10 10 10 10 9 9 9 11 13 13 15 17 15 14 14 17 21 25 26 24 19 14 10 8 9 10 9 10 10 9 9 8 8 9 8 8 8 9 9 9 9 10 10 11 14 16 18 20 21 22 23 24 24 25 24 22
6 7 8 9 10 10 11 11 11 11 10 10 10 11 11 13 16 19 17 15 16 17 20 23 25 24 20 15 13 12 9 9 9 9 9 10 10 10 9 9 10 9 9 9 10 10 10 10 11 13 14 16 17 19 19 20 21 22 24 26 27 26 24
7 8 9 9 10 11 11 11 11 11 11 11 11 11 12 13 16 16 13 15 17 19 22 24 23 20 16 14 15 13 9 9 9 9 9 10 10 10 10 10 10 10 9 10 10 11 11 12 13 15 16 17 18 19 19 19 20 22 24 26 27 28 28
8 8 9 10 11 11 11 10 11 11 11 11 11 11 12 12 12 12 14 15 16 22 25 23 20 18 16 16 16 11 8 8 9 9 9 10 11 11 11 11 10 10 10 10 12 14 15 16 15 15 17 18 18 19 19 19 21 23 24 26 28 29 31
9 9 10 10 10 11 11 10 11 11 11 11 11 11 11 10 8 11 14 14 17 24 26 21 18 18 17 17 15 11 8 7 8 9 9 10 11 10 11 12 12 12 12 13 14 16 17 17 15 15 17 18 18 20 20 20 21 22 23 24 27 28 29
9 9 9 9 10 10 11 11 11 11 11 11 11 10 11 10 10 12 15 14 17 23 23 20 18 18 17 16 14 12 8 6 8 9 9 10 10 9 10 11 12 12 13 14 15 15 15 16 15 15 17 18 20 23 23 22 21 22 22 23 24 25 25
10 9 9 9 9 10 11 11 11 11 12 12 11 9 8 10 13 14 14 13 14 18 20 19 17 16 16 14 12 12 9 7 8 9 8 8 8 9 9 9 8 7 7 10 12 14 15 16 15 15 16 18 20 23 25 24 24 24 25 25 24 25 26
11 11 11 10 10 11 12 12 12 12 12 11 10 7 8 14 15 15 14 12 12 14 17 18 17 15 14 13 12 12 9 7 7 6 6 7 8 9 9 8 7 6 6 8 10 13 15 17 19 19 19 19 22 25 27 27 26 26 27 27 26 26 26
13 13 12 11 12 12 12 13 12 11 10 6 4 9 14 17 17 16 14 12 12 14 15 16 15 14 12 10 10 10 8 7 7 6 6 7 7 9 10 9 8 8 9 12 16 19 21 22 23 21 20 21 22 24 25 25 24 24 25 25 24 24 23
15 14 13 12 12 12 12 13 12 10 6 6 12 15 16 17 17 16 14 13 13 14 14 13 12 11 10 8 8 8 7 8 8 6 5 7 8 9 10 10 11 13 15 19 23 25 25 24 21 19 18 19 20 21 22 23 23 23 24 24 24 24 23
16 15 14 12 12 12 12 10 7 6 8 11 14 15 16 16 16 15 14 13 13 13 12 10 9 7 6 5 5 5 5 6 6 5 5 7 8 9 10 12 14 18 20 23 23 23 23 22 20 19 19 20 21 21 22 22 22 22 23 23 23 23 23

ECMWFFLT1_925_spd_006.txt.gz
Wind_Speed
15 16 13 12 12 10 10 9 10 10 9 10 10 11 11 10 10 10 10 10 10 10 10 11 10 10 10 9 8 10 11 10 9 7 6 5 4 2 2 3 3 4 4 4 2 0 1 2 2 3 5 6 6 6 6 7 9 10 10 9 8 8 7
17 16 14 13 13 11 11 10 10 10 10 10 10 11 11 11 11 10 10 11 13 13 12 11 11 11 10 10 9 10 10 11 12 11 9 8 7 6 4 3 4 3 2 2 2 2 2 2 2 2 3 4 5 6 7 9 10 11 12 11 9 8 8
18 16 16 14 13 12 11 11 11 10 10 10 10 10 10 10 10 10 10 11 13 12 12 11 12 11 11 11 10 10 10 10 10 11 12 11 9 7 8 6 4 4 2 1 1 2 4 4 2 3 4 4 4 6 9 10 10 9 10 11 10 9 11
20 18 18 16 14 13 12 12 11 11 10 10 10 9 9 9 10 10 10 11 11 11 11 11 11 11 11 11 10 10 10 10 10 9 11 11 9 9 11 11 9 7 6 5 5 6 4 2 3 4 6 8 7 8 10 11 11 10 10 13 12 12 12
21 20 20 17 15 14 13 13 13 12 11 9 9 9 8 9 10 10 10 10 10 10 10 10 10 10 10 10 10 11 10 10 10 10 11 11 10 10 10 10 9 8 8 8 7 7 7 5 4 3 6 8 7 8 12 12 13 12 12 14 14 12 12
21 20 19 17 16 15 14 14 15 14 13 11 9 9 8 8 8 9 9 9 10 10 10 10 11 10 10 10 10 10 11 11 10 11 12 11 10 10 8 8 9 8 7 6 5 5 5 5 4 3 6 9 7 8 12 12 12 11 11 13 14 14 12
21 19 19 18 16 16 15 15 15 15 14 13 12 10 9 8 7 7 7 8 9 10 10 10 10 9 9 10 10 9 10 10 9 11 11 10 10 9 9 9 8 7 6 5 5 6 7 7 7 6 6 7 8 9 10 11 12 10 10 13 13 12 12
21 19 18 18 16 16 16 15 14 15 15 14 14 12 10 9 8 8 8 8 8 8 9 10 10 9 9 9 9 9 9 8 9 10 10 10 9 8 10 10 7 5 4 5 4 4 5 6 7 9 8 5 5 6 7 10 12 10 11 14 15 12 10
21 19 18 19 17 15 16 15 13 13 15 15 15 14 12 12 11 9 8 8 8 8 9 9 9 9 8 7 8 8 8 8 8 7 7 8 8 7 9 8 5 4 4 5 4 2 1 2 3 5 7 7 5 4 4 6 8 9 14 18 16 14 16
21 20 17 19 19 15 15 16 12 11 14 15 16 15 13 12 11 10 10 9 9 8 9 8 8 9 8 7 7 7 7 6 6 6 5 5 5 5 6 5 4 3 4 4 2 2 2 2 2 3 4 6 6 4 3 3 4 7 14 18 17 16 18
21 20 17 17 19 16 14 15 14 11 12 14 16 15 14 13 12 11 10 10 9 9 9 9 9 10 9 8 8 7 7 6 6 6 6 4 4 4 3 4 4 2 3 3 3 3 3 3 3 3 3 4 5 5 3 3 4 6 13 17 18 19 20
18 18 16 15 18 18 15 14 15 14 12 13 15 16 15 14 13 13 12 11 11 10 10 10 10 10 10 9 9 8 8 7 6 6 5 5 4 3 2 3 4 1 2 2 3 3 3 3 3 3 4 3 4 4 5 5 3 5 11 15 18 19 19
15 15 13 13 16 18 17 14 14 16 15 14 15 16 16 16 15 15 14 13 12 12 11 11 11 11 11 11 10 9 8 8 7 7 6 4 4 3 2 2 2 0 1 2 2 1 2 4 4 4 3 3 4 4 5 6 5 7 12 14 16 18 17
13 13 12 11 12 14 17 17 15 15 16 16 16 17 17 17 17 16 16 15 15 14 14 13 13 12 12 11 11 10 10 9 9 8 7 6 5 5 3 3 3 2 2 2 2 2 4 5 6 7 6 6 6 5 4 6 7 8 13 14 15 17 17
10 13 14 13 14 15 16 17 15 14 16 16 16 18 17 17 16 16 16 16 17 16 16 16 15 14 13 12 12 12 11 11 10 10 10 8 7 7 5 4 4 4 3 3 3 4 5 5 5 7 6 5 6 6 5 8 10 10 12 15 15 16 16
8 10 12 12 15 17 17 17 16 15 15 14 14 16 17 18 17 17 17 17 18 18 17 17 16 15 15 14 14 14 13 12 12 11 11 10 9 9 7 5 4 5 5 4 3 3 4 5 5 6 7 7 8 10 9 10 11 11 13 15 14 15 15
5 6 8 8 10 12 12 13 14 13 12 13 13 13 16 18 18 17 19 19 18 18 18 18 18 17 17 16 16 16 15 14 13 13 12 10 10 9 9 7 6 6 6 4 4 4 4 4 5 5 7 7 8 10 10 9 10 11 13 14 14 15 16
3 4 5 6 8 9 7 5 6 8 10 11 10 10 12 15 16 17 20 20 19 18 18 18 19 19 18 18 18 17 15 14 14 13 12 11 10 10 9 8 7 7 6 5 4 5 4 3 4 5 7 8 9 11 12 12 12 13 14 16 17 17 17
3 5 5 5 7 10 10 7 5 7 10 11 13 16 18 17 17 16 17 19 19 19 19 19 19 20 19 19 19 18 16 15 14 13 12 11 10 10 9 8 7 7 7 6 5 5 4 4 4 5 6 8 9 10 12 12 12 13 15 17 18 18 19
2 2 3 4 5 8 10 11 10 10 12 13 15 21 24 21 18 17 17 18 19 19 19 18 19 20 19 20 20 19 17 16 14 13 12 11 10 10 10 8 8 8 7 6 6 5 5 4 4 4 5 6 8 9 11 12 12 14 15 17 17 17 18
5 4 3 3 3 4 6 6 8 10 14 16 17 20 20 18 16 18 20 21 20 20 20 19 19 19 20 21 21 20 18 17 15 14 13 12 11 10 10 9 8 8 8 9 9 8 7 6 6 7 7 6 7 8 9 10 12 14 15 16 17 17 18
6 4 3 3 3 4 4 3 4 7 11 16 20 21 20 19 20 21 22 22 24 24 24 24 24 23 22 22 21 20 19 18 17 16 15 13 12 12 12 11 9 10 11 12 11 10 9 9 11 11 11 9 8 8 8 9 11 13 15 16 17 17 17
5 3 3 3 3 3 3 4 4 7 11 15 17 18 17 18 20 21 21 23 25 25 26 28 29 26 24 23 22 21 20 18 17 16 15 14 13 12 12 11 11 13 14 13 12 12 12 11 10 10 11 11 10 9 8 10 11 12 13 14 16 16 16
5 3 2 2 1 2 3 4 5 8 11 12 11 10 10 12 15 17 20 22 22 23 25 28 28 25 23 23 23 22 20 18 16 15 14 13 13 12 11 10 11 13 14 14 14 14 13 10 8 9 10 10 9 9 10 11 13 13 13 14 15 16 16
3 3 2 1 0 1 2 3 5 6 7 8 8 7 7 9 10 12 15 18 20 20 23 26 26 25 24 24 23 21 19 18 16 14 13 12 11 11 11 11 11 11 11 12 12 12 10 10 10 11 11 10 10 10 11 13 14 15 15 16 16 16 16
3 3 2 1 1 2 4 5 5 6 7 7 7 8 8 8 10 11 12 14 17 18 20 23 25 26 26 25 24 21 20 19 17 14 12 11 11 11 11 11 10 9 9 10 10 10 10 12 13 13 12 12 12 12 13 14 15 17 19 21 21 20 19
2 1 1 1 2 3 5 6 7 7 7 8 8 8 9 10 12 12 10 11 13 14 16 19 21 25 26 26 25 22 19 18 16 13 11 11 12 12 10 8 8 8 9 9 10 10 10 11 11 10 9 10 11 12 14 15 17 19 21 24 26 26 24
2 1 1 2 3 4 5 7 8 8 8 9 9 10 10 12 13 13 11 11 11 11 13 16 18 22 24 24 24 21 17 14 13 12 11 11 11 11 10 9 9 10 11 10 10 11 11 11 11 10 10 11 13 15 16 17 18 20 21 22 24 25 25
2 2 2 2 3 5 6 7 8 8 9 9 9 10 10 11 12 12 12 13 12 12 13 14 16 19 21 23 22 19 14 12 14 13 12 12 12 12 12 11 12 12 13 13 13 14 14 14 14 14 14 15 17 19 19 19 19 19 21 21 22 24 24
3 3 3 3 4 4 5 6 7 8 9 9 10 11 11 10 10 10 12 13 14 14 15 16 17 19 20 21 19 15 12 12 13 11 10 10 10 12 13 12 13 13 13 13 13 13 13 14 15 15 17 18 19 20 19 19 19 19 20 21 22 23 24
4 4 4 5 5 4 5 6 8 9 9 10 11 10 10 10 8 6 10 13 14 15 17 18 18 18 18 18 16 15 13 10 9 9 9 10 12 12 13 14 14 14 14 13 13 12 13 14 14 14 15 16 17 19 19 20 20 20 20 21 21 22 23
5 6 6 6 5 5 6 7 8 9 10 11 11 11 12 10 5 6 10 11 11 13 16 18 18 18 18 16 15 15 13 9 7 8 10 13 14 13 12 12 13 15 16 13 12 12 12 12 12 12 13 14 16 19 20 20 20 21 22 24 25 26 27
8 8 7 7 6 6 7 7 9 10 10 11 11 11 11 8 10 10 8 9 10 12 15 16 17 17 16 15 14 14 12 7 4 6 8 9 9 8 7 7 8 11 12 11 9 9 10 10 12 13 15 17 19 20 21 22 23 25 27 29 29 29 29
10 9 8 8 7 8 8 9 10 11 12 12 11 8 5 10 15 13 9 9 11 11 12 15 17 17 16 15 12 12 11 5 2 5 6 5 4 5 7 6 4 6 8 8 8 10 12 14 16 17 19 19 19 20 21 22 24 24 25 25 25 24 23
11 10 9 9 9 10 10 11 12 13 14 11 7 5 8 14 16 13 11 10 10 11 13 17 18 19 17 15 13 12 10 6 3 4 5 5 6 7 8 7 5 4 5 9 12 15 18 19 19 18 17 17 17 17 18 20 22 23 22 21 21 21 20
13 12 11 12 12 11 11 12 12 13 12 8 8 10 13 17 17 14 13 12 11 14 17 17 18 18 17 15 13 10 8 7 5 5 6 6 6 7 8 7 6 6 10 14 17 18 17 16 15 15 14 15 16 17 18 21 22 22 21 20 19 19 19
16 15 14 15 15 14 13 13 11 8 7 9 12 14 15 16 17 15 14 13 14 17 18 17 16 16 15 13 10 8 6 6 6 6 7 7 7 7 9 10 12 14 17 18 16 15 14 12 12 13 14 16 17 18 20 21 20 19 19 18 18 18 18

ECMWFFLT1_925_spd_009.txt.gz
Wind_Speed
22 23 23 21 20 20 20 18 17 15 13 12 11 12 13 13 12 12 12 12 13 14 16 17 16 15 14 13 12 11 10 8 7 8 9 7 4 4 5 6 5 4 3 3 3 2 1 0 2 2 3 4 5 6 6 5 5 7 8 7 8 9 7
24 24 22 20 20 21 21 19 17 15 14 13 12 12 13 12 13 14 14 12 11 10 12 14 14 14 15 15 14 13 14 13 11 11 12 9 6 4 3 4 5 5 3 1 2 4 2 1 1 3 2 1 4 5 5 6 5 6 9 9 9 9 9
26 24 21 20 21 21 21 19 17 16 16 15 14 14 13 12 13 15 14 12 10 9 9 10 12 13 13 13 13 13 14 15 14 14 13 12 10 8 6 5 5 4 3 2 0 2 2 1 1 3 5 5 4 4 3 5 6 7 8 9 10 9 9
27 24 23 22 22 22 20 19 18 18 17 15 14 14 13 12 13 14 15 14 13 12 12 11 12 12 12 12 12 11 11 12 13 13 12 12 12 12 12 10 9 8 7 6 6 6 5 3 1 3 7 10 8 7 8 9 8 7 9 10 11 10 9
27 26 25 25 24 21 20 20 19 18 17 14 13 13 13 13 14 15 15 14 13 13 13 13 12 12 11 11 10 10 10 10 10 9 9 9 10 12 12 11 10 9 8 8 7 8 8 6 4 3 6 9 8 9 13 11 9 8 9 10 11 11 10
28 27 27 25 22 21 21 22 20 18 17 15 13 13 14 14 13 14 14 13 13 13 12 12 11 11 10 10 11 11 11 11 10 9 8 9 10 10 10 9 7 6 6 7 6 6 6 5 7 5 5 7 5 8 12 12 11 10 11 13 16 17 12
29 26 27 25 22 23 23 21 19 17 17 15 13 14 14 13 10 11 12 12 13 13 12 10 10 11 10 11 12 11 12 12 11 11 10 10 10 10 9 8 6 5 6 5 4 4 4 5 7 6 4 5 4 6 9 10 11 10 11 14 17 19 19
29 26 26 25 23 25 23 20 18 16 15 14 12 12 13 12 10 9 9 12 13 13 12 10 9 10 10 10 10 10 11 11 11 11 11 11 11 11 9 7 6 6 5 5 4 4 4 3 5 5 5 4 3 4 5 8 10 8 9 13 13 15 18
29 26 25 25 23 24 23 19 18 17 15 14 13 12 12 11 9 8 8 10 11 12 12 11 10 8 8 8 8 9 10 9 8 9 10 10 10 10 9 6 6 7 6 5 5 5 4 4 4 5 7 7 4 3 3 5 6 4 9 14 12 13 18
28 26 25 25 24 23 23 20 19 19 17 16 14 14 13 11 9 7 8 9 9 11 12 11 10 7 6 7 8 8 8 6 5 6 7 8 8 8 8 5 4 6 5 6 7 8 7 7 6 6 6 8 6 4 2 3 4 4 8 15 12 12 18
26 26 24 24 24 25 23 21 21 21 19 18 16 15 14 12 10 8 9 9 9 11 11 9 9 8 6 6 7 7 6 5 5 4 4 4 5 5 6 6 4 4 5 6 8 8 8 8 7 5 4 5 5 4 2 2 3 4 10 16 14 15 20
23 24 24 24 24 25 24 21 21 22 21 20 18 16 16 14 11 10 9 9 10 11 11 8 8 9 7 6 7 7 6 6 6 5 3 2 2 3 4 6 4 2 3 4 4 4 5 6 6 5 4 3 3 3 4 3 2 4 11 17 18 20 22
22 22 23 25 23 24 25 22 21 21 22 21 19 17 16 14 13 11 10 10 10 11 12 10 10 10 9 8 8 8 7 7 7 5 4 3 2 2 3 3 2 2 3 2 1 2 2 4 5 6 6 4 3 3 5 4 3 7 13 16 18 21 22
23 22 22 25 24 23 24 23 21 20 21 21 20 18 16 14 13 12 12 12 11 11 13 13 12 13 12 11 11 11 9 8 8 7 5 4 4 3 1 0 2 5 4 2 1 1 1 3 4 6 7 6 5 4 6 7 6 8 14 16 17 19 19
19 18 19 24 24 22 22 22 22 21 22 23 21 18 16 15 13 12 12 13 12 12 12 14 15 15 14 13 13 13 12 11 11 10 8 7 7 6 4 4 4 5 5 5 4 2 1 3 4 5 5 3 4 5 5 7 8 8 12 16 16 16 16
17 15 17 20 21 19 19 20 22 23 23 22 21 19 17 15 14 14 14 15 15 14 13 14 15 16 16 16 15 15 14 13 13 13 12 11 10 8 7 6 5 5 6 7 5 3 2 4 4 5 5 3 4 6 6 8 10 9 11 13 14 15 17
15 13 14 16 17 16 16 17 19 22 22 20 17 16 16 16 16 16 17 18 18 17 16 17 17 17 17 18 17 17 17 16 15 15 15 15 13 11 10 9 8 7 8 8 6 3 3 5 5 4 5 5 5 7 8 9 9 9 10 13 15 16 17
16 14 13 12 12 13 14 14 16 19 21 19 16 13 14 17 17 17 17 18 20 21 20 19 20 20 19 20 20 19 19 19 17 16 16 16 14 13 13 13 10 9 9 9 7 5 5 7 6 5 5 6 7 8 9 9 9 10 11 13 16 17 17
17 17 16 15 13 11 10 10 12 15 18 20 17 13 13 16 17 15 14 13 16 21 23 22 22 22 22 22 22 21 21 22 19 17 17 16 14 13 13 12 10 10 10 9 8 8 8 8 8 8 7 7 8 9 9 9 10 11 12 13 15 16 17
8 10 12 14 14 14 12 9 9 13 16 19 19 16 15 15 15 14 14 13 14 18 22 24 24 25 25 24 24 23 24 23 20 19 18 17 15 14 13 12 11 10 10 9 9 9 10 10 9 8 8 8 8 9 10 10 10 11 13 15 16 17 18
4 5 6 8 9 11 13 11 11 13 16 18 20 20 19 19 19 19 19 21 21 20 20 23 25 27 27 27 26 25 25 24 21 20 19 18 16 15 14 13 11 10 10 11 11 11 11 11 10 9 9 11 11 11 10 10 11 11 13 15 17 19 20
10 8 8 8 8 9 10 11 12 14 15 17 18 19 19 19 20 21 21 22 25 24 23 22 23 25 27 27 28 27 26 25 23 21 20 18 16 15 14 13 13 12 12 13 13 13 13 12 11 11 13 14 12 10 10 10 10 11 13 15 17 18 19
11 10 10 10 10 10 10 10 10 11 12 13 14 15 15 16 18 19 19 20 22 24 25 25 24 24 24 25 26 26 26 26 24 23 22 20 18 16 14 14 14 13 13 13 13 13 13 13 13 14 14 12 10 9 9 8 9 10 12 13 15 16 17
10 10 10 9 9 10 10 9 8 8 9 10 11 12 13 14 16 18 19 20 22 23 24 25 25 25 25 24 23 24 25 26 26 25 24 22 21 19 17 15 14 13 14 14 14 14 14 14 15 15 12 9 8 8 8 8 9 10 11 12 14 15 16
9 10 10 8 8 9 9 8 8 8 8 9 9 10 11 13 13 13 14 16 18 19 20 21 22 23 24 24 24 24 24 26 26 26 25 24 23 21 19 16 14 13 14 14 15 16 15 16 16 15 12 10 9 9 9 9 10 10 11 13 16 17 18
9 9 8 8 8 7 6 7 7 8 9 9 9 11 12 11 10 9 10 12 13 15 17 19 20 20 22 23 24 24 24 26 28 27 26 25 23 20 17 15 14 14 14 15 15 15 15 15 14 13 12 12 11 11 10 11 11 11 12 14 17 20 21
10 10 8 7 6 6 5 4 4 6 7 8 9 11 13 12 10 9 10 12 12 12 14 16 17 18 19 19 19 22 24 26 27 24 22 20 18 16 15 13 13 14 14 13 12 12 13 14 13 13 13 12 12 11 11 11 11 12 14 16 18 21 22
9 8 7 6 6 5 4 4 3 3 5 6 7 8 9 11 12 13 13 12 11 12 13 12 12 13 14 15 16 19 21 22 22 20 18 16 13 13 13 11 10 11 10 8 8 9 10 12 13 13 12 12 12 12 12 13 14 16 17 18 19 21 22
9 7 6 7 6 5 4 4 3 3 4 6 8 8 8 8 10 14 16 13 12 12 12 10 8 8 10 13 16 18 18 18 17 15 14 12 10 11 12 11 11 10 9 9 9 11 13 14 14 14 13 12 12 13 14 15 16 16 16 17 18 19 20
9 8 7 6 5 4 4 4 4 4 4 5 7 9 9 9 9 11 14 15 14 13 10 7 6 7 11 14 16 16 15 15 13 11 10 11 11 10 10 10 11 11 11 11 12 14 16 16 15 14 14 14 14 15 15 15 14 13 13 15 17 18 19
7 8 7 6 4 3 4 4 4 5 5 6 7 7 8 9 10 10 11 13 13 12 9 9 10 11 14 15 15 14 13 12 11 9 8 8 8 7 8 10 12 12 12 14 14 15 15 14 13 13 12 13 14 15 16 17 17 18 19 20 22 23 24
8 7 5 5 5 5 5 5 5 6 6 7 8 9 9 10 11 11 11 12 12 10 9 11 13 14 15 14 13 14 13 12 11 8 6 5 5 6 10 12 13 12 13 14 13 12 11 10 10 10 11 13 15 17 19 20 21 23 24 24 25 25 25
5 6 7 8 8 8 8 7 7 7 8 8 9 10 11 12 12 12 13 13 11 10 11 13 15 15 15 14 14 14 13 12 11 8 6 4 2 4 8 10 9 9 9 9 8 7 6 7 9 12 14 16 17 18 19 19 20 20 21 22 23 24 24
7 8 11 12 12 11 11 10 9 8 9 11 11 10 10 12 13 13 12 12 11 11 11 14 16 16 15 14 14 14 13 12 11 10 8 6 5 3 2 4 5 4 4 4 4 6 9 11 13 15 16 16 16 16 17 17 18 19 20 22 24 24 23
11 11 11 12 13 12 11 11 11 11 12 13 12 9 11 13 14 14 12 11 12 13 13 14 15 16 16 14 13 12 12 11 10 9 8 6 3 4 3 4 5 2 1 4 7 10 12 13 14 14 14 14 15 16 16 17 19 20 22 23 23 23 21
12 12 11 10 11 12 12 12 12 13 14 14 11 11 15 16 16 15 14 14 13 13 14 14 14 15 15 14 12 12 11 9 7 5 4 3 1 1 2 2 1 3 6 9 12 12 11 11 12 12 13 13 14 15 16 18 20 21 23 23 23 23 22
16 16 15 14 14 14 14 14 15 15 15 14 12 16 18 18 17 17 16 15 14 12 13 14 15 14 14 13 12 11 10 7 4 4 3 3 2 2 2 4 6 8 11 12 12 10 9 9 10 10 11 12 13 14 16 17 19 20 21 22 22 22 21